User: anonymous
Location: Clatteringshaws Loch
(55.0508°N, 4.2860°W)
Time: 03:22:28
(UTC+01:00)
Language:

ALOS - Orbit

View from above orbital plane
View from above orbital plane
View from above satellite
View from above satellite

Ground track
Ground track

The orbit data is extracted from the following two-line orbital elements,

1 28931U 06002A   14274.47723380  .00001208  00000-0  25358-3 0   632
2 28931 097.9717 328.7746 0001736 143.4345 039.5757 14.61321876462842
Epoch (UTC): 01 October 2014 11:27:13
Eccentricity: 0.0001736
inclination: 97.9717°
perigee height: 687 km
apogee height: 690 km
right ascension of ascending node: 328.7746°
argument of perigee: 143.4345°
revolutions per day: 14.61321876
mean anomaly at epoch: 39.5757°
orbit number at epoch: 46284

The dashed part of the orbit path shows where the satellite is in the earth's shadow,  

DLR